{"data":{"norad_id":68906,"epoch":"2026-09-20T00:25:54.125184Z","epoch_age_seconds":57024,"freshness":"FRESH","line1":"1 68906U 26097M   26263.01798756  .00011960  00000+0  37200-3 0  9996","line2":"2 68906  97.2846  97.1015 0001716  97.5789 262.5649 15.33461277 22018","mean_motion":15.33461277,"eccentricity":0.0001716,"inclination_deg":97.2846,"raan_deg":97.1015,"arg_perigee_deg":97.5789,"mean_anomaly_deg":262.5649,"bstar":0.000372,"rev_number":2201,"period_min":93.905207884816,"perigee_km":464.32037879874,"apogee_km":466.66911321397,"semimajor_km":6843.6317460064,"source":"CELESTRAK","updated_at":"2026-09-20T09:00:44.048199Z"}}